| time (UTC) | temp F | wind direction | speed knots | gust knots | rain 1hr in | rain 24hr in | rain mn in | humidity % | barometer mb |
| 20260505012015 | 51 | 197 | 9.6 | 12.2 | 0.00 | 0.00 | 0.00 | 93 | 1012.1 |
| 20260505011549 | 50 | 198 | 9.6 | 12.2 | 0.00 | 0.00 | 0.00 | 93 | 1012.0 |
| 20260505011016 | 50 | 197 | 8.7 | 11.3 | 0.00 | 0.00 | 0.00 | 93 | 1012.1 |
| 20260505010515 | 50 | 199 | 7.8 | 10.4 | 0.00 | 0.00 | 0.00 | 92 | 1012.2 |
| 20260505010046 | 50 | 196 | 8.7 | 11.3 | 0.00 | 0.00 | 0.00 | 93 | 1012.1 |
| 20260505005515 | 50 | 180 | 8.7 | 11.3 | 0.00 | 0.00 | 0.00 | 93 | 1012.0 |
| 20260505005016 | 50 | 201 | 8.7 | 10.4 | 0.00 | 0.00 | 0.00 | 93 | 1011.9 |
| 20260505004541 | 50 | 202 | 8.7 | 10.4 | 0.00 | 0.00 | 0.00 | 93 | 1011.9 |
| 20260505004014 | 50 | 216 | 7.8 | 10.4 | 0.00 | 0.00 | 0.00 | 92 | 1012.0 |
| 20260505003518 | 50 | 221 | 8.7 | 10.4 | 0.00 | 0.00 | 0.00 | 92 | 1011.9 |
| 20260505003043 | 50 | 233 | 9.6 | 12.2 | 0.00 | 0.00 | 0.00 | 92 | 1011.7 |
| 20260505002518 | 50 | 219 | 8.7 | 12.2 | 0.00 | 0.00 | 0.00 | 92 | 1011.6 |
| 20260505002014 | 50 | 240 | 8.7 | 13.9 | 0.00 | 0.00 | 0.00 | 92 | 1011.5 |
| 20260505001551 | 50 | 210 | 9.6 | 13.9 | 0.00 | 0.00 | 0.00 | 92 | 1011.2 |
| 20260505001014 | 50 | 215 | 11.3 | 15.6 | 0.00 | 0.00 | 0.00 | 92 | 1010.9 |
| 20260505000516 | 51 | 210 | 12.2 | 16.5 | 0.00 | 0.00 | 0.00 | 91 | 1010.9 |
| 20260505000054 | 51 | 198 | 13.0 | 17.4 | 0.00 | 0.00 | 0.00 | 91 | 1010.8 |
| 20260504235516 | 51 | 200 | 13.9 | 17.4 | 0.00 | 0.00 | 0.00 | 91 | 1010.8 |
| 20260504235015 | 51 | 195 | 13.0 | 18.2 | 0.00 | 0.00 | 0.00 | 91 | 1010.8 |
| 20260504234541 | 51 | 202 | 13.9 | 18.2 | 0.00 | 0.00 | 0.00 | 91 | 1010.8 |
| 20260504234015 | 51 | 192 | 13.9 | 18.2 | 0.00 | 0.00 | 0.00 | 90 | 1010.9 |
| 20260504233515 | 51 | 182 | 14.8 | 18.2 | 0.00 | 0.00 | 0.00 | 90 | 1010.5 |
| 20260504233041 | 51 | 194 | 14.8 | 18.2 | 0.00 | 0.00 | 0.00 | 90 | 1010.6 |
| 20260504232514 | 51 | 180 | 14.8 | 16.5 | 0.00 | 0.00 | 0.00 | 89 | 1010.6 |
| 20260504232017 | 51 | 193 | 13.9 | 17.4 | 0.00 | 0.00 | 0.00 | 89 | 1010.7 |
| 20260504231556 | 52 | 191 | 13.9 | 18.2 | 0.00 | 0.00 | 0.00 | 89 | 1010.7 |
| 20260504231015 | 52 | 191 | 13.9 | 18.2 | 0.00 | 0.00 | 0.00 | 88 | 1010.8 |
| 20260504230515 | 52 | 196 | 13.0 | 17.4 | 0.00 | 0.00 | 0.00 | 88 | 1010.9 |
| 20260504230041 | 52 | 197 | 12.2 | 15.6 | 0.00 | 0.00 | 0.00 | 88 | 1010.9 |
| 20260504225518 | 52 | 200 | 11.3 | 15.6 | 0.00 | 0.00 | 0.00 | 88 | 1011.0 |
| 20260504225017 | 52 | 188 | 10.4 | 15.6 | 0.00 | 0.00 | 0.00 | 87 | 1011.1 |
| 20260504224542 | 52 | 196 | 12.2 | 15.6 | 0.00 | 0.00 | 0.00 | 87 | 1011.1 |
| 20260504224018 | 52 | 204 | 11.3 | 14.8 | 0.00 | 0.00 | 0.00 | 87 | 1011.2 |
| 20260504223519 | 52 | 193 | 11.3 | 13.9 | 0.00 | 0.00 | 0.00 | 87 | 1011.1 |
| 20260504223047 | 52 | 190 | 11.3 | 15.6 | 0.00 | 0.00 | 0.00 | 87 | 1011.0 |
| 20260504222515 | 52 | 188 | 12.2 | 15.6 | 0.00 | 0.00 | 0.00 | 87 | 1011.1 |
| 20260504222018 | 52 | 195 | 11.3 | 13.9 | 0.00 | 0.00 | 0.00 | 86 | 1011.1 |
| 20260504221553 | 52 | 195 | 11.3 | 15.6 | 0.00 | 0.00 | 0.00 | 86 | 1011.2 |
| 20260504221015 | 52 | 187 | 10.4 | 14.8 | 0.00 | 0.00 | 0.00 | 86 | 1011.1 |
| 20260504220517 | 52 | 184 | 11.3 | 15.6 | 0.00 | 0.00 | 0.00 | 86 | 1011.1 |
| 20260504220045 | 52 | 198 | 12.2 | 15.6 | 0.00 | 0.00 | 0.00 | 86 | 1011.1 |
| 20260504215517 | 52 | 194 | 12.2 | 17.4 | 0.00 | 0.00 | 0.00 | 86 | 1011.2 |
| 20260504215015 | 52 | 194 | 13.0 | 17.4 | 0.00 | 0.00 | 0.00 | 85 | 1011.1 |
| 20260504214544 | 52 | 191 | 12.2 | 17.4 | 0.00 | 0.00 | 0.00 | 86 | 1011.1 |
| 20260504214020 | 52 | 193 | 13.0 | 17.4 | 0.00 | 0.00 | 0.00 | 86 | 1011.1 |
| 20260504213514 | 52 | 200 | 13.9 | 18.2 | 0.00 | 0.00 | 0.00 | 86 | 1011.1 |
| 20260504213053 | 52 | 190 | 12.2 | 17.4 | 0.00 | 0.00 | 0.00 | 85 | 1011.0 |
| 20260504212517 | 52 | 186 | 13.9 | 19.1 | 0.00 | 0.00 | 0.00 | 86 | 1011.2 |
| 20260504212015 | 52 | 196 | 13.9 | 18.2 | 0.00 | 0.00 | 0.00 | 85 | 1011.2 |
| 20260504211547 | 52 | 199 | 13.9 | 18.2 | 0.00 | 0.00 | 0.00 | 85 | 1011.3 |
| 20260504211018 | 52 | 200 | 13.9 | 19.1 | 0.00 | 0.00 | 0.00 | 85 | 1011.2 |
| 20260504210517 | 52 | 188 | 15.6 | 19.1 | 0.00 | 0.00 | 0.00 | 85 | 1011.2 |
| 20260504210108 | 52 | 201 | 13.9 | 19.1 | 0.00 | 0.00 | 0.00 | 85 | 1011.1 |
| 20260504205516 | 52 | 212 | 14.8 | 19.1 | 0.00 | 0.00 | 0.00 | 85 | 1011.0 |
| 20260504205017 | 52 | 216 | 14.8 | 19.1 | 0.00 | 0.00 | 0.00 | 85 | 1011.1 |
| 20260504204559 | 52 | 203 | 14.8 | 20.9 | 0.00 | 0.00 | 0.00 | 85 | 1010.9 |
| 20260504204017 | 52 | 189 | 16.5 | 20.9 | 0.00 | 0.00 | 0.00 | 84 | 1010.9 |
| 20260504203521 | 52 | 195 | 15.6 | 20.0 | 0.00 | 0.00 | 0.00 | 84 | 1010.7 |
| 20260504203047 | 52 | 191 | 16.5 | 19.1 | 0.00 | 0.00 | 0.00 | 84 | 1010.8 |
| 20260504202516 | 52 | 189 | 15.6 | 20.0 | 0.00 | 0.00 | 0.00 | 84 | 1010.8 |
| 20260504202018 | 52 | 182 | 15.6 | 20.0 | 0.00 | 0.00 | 0.00 | 84 | 1010.9 |
| 20260504201547 | 52 | 192 | 15.6 | 20.0 | 0.00 | 0.00 | 0.00 | 84 | 1010.8 |
| 20260504201016 | 52 | 212 | 15.6 | 19.1 | 0.00 | 0.00 | 0.00 | 84 | 1011.2 |
| 20260504200517 | 52 | 197 | 15.6 | 19.1 | 0.00 | 0.00 | 0.00 | 84 | 1011.1 |
| 20260504200040 | 52 | 192 | 13.9 | 19.1 | 0.00 | 0.00 | 0.00 | 84 | 1011.1 |
| 20260504195515 | 52 | 189 | 14.8 | 19.1 | 0.00 | 0.00 | 0.00 | 84 | 1011.2 |
| 20260504195019 | 52 | 192 | 15.6 | 20.9 | 0.00 | 0.00 | 0.00 | 84 | 1011.1 |
| 20260504194603 | 52 | 195 | 16.5 | 20.9 | 0.00 | 0.00 | 0.00 | 83 | 1011.2 |
| 20260504194019 | 52 | 194 | 15.6 | 20.0 | 0.00 | 0.00 | 0.00 | 83 | 1011.2 |
| 20260504193518 | 52 | 196 | 14.8 | 19.1 | 0.00 | 0.00 | 0.00 | 83 | 1011.4 |
| 20260504193034 | 52 | 188 | 15.6 | 18.2 | 0.00 | 0.00 | 0.00 | 83 | 1011.3 |
| 20260504192519 | 52 | 183 | 15.6 | 19.1 | 0.00 | 0.00 | 0.00 | 83 | 1011.4 |
| 20260504192016 | 52 | 200 | 15.6 | 18.2 | 0.00 | 0.00 | 0.00 | 83 | 1011.3 |
| 20260504191550 | 52 | 200 | 14.8 | 20.0 | 0.00 | 0.00 | 0.00 | 83 | 1011.3 |
| 20260504191018 | 52 | 192 | 16.5 | 19.1 | 0.00 | 0.00 | 0.00 | 83 | 1011.3 |
| 20260504190520 | 52 | 202 | 15.6 | 19.1 | 0.00 | 0.00 | 0.00 | 83 | 1011.3 |
| 20260504185521 | 52 | 196 | 14.8 | 18.2 | 0.00 | 0.00 | 0.00 | 84 | 1011.4 |
| 20260504185015 | 52 | 213 | 13.9 | 18.2 | 0.00 | 0.00 | 0.00 | 84 | 1011.6 |
| 20260504184541 | 52 | 203 | 14.8 | 18.2 | 0.00 | 0.00 | 0.00 | 84 | 1011.6 |
| 20260504184016 | 52 | 200 | 14.8 | 19.1 | 0.00 | 0.00 | 0.00 | 84 | 1011.7 |
| 20260504183521 | 52 | 203 | 13.9 | 19.1 | 0.00 | 0.00 | 0.00 | 84 | 1011.8 |
| 20260504183037 | 52 | 202 | 14.8 | 19.1 | 0.00 | 0.00 | 0.00 | 84 | 1011.8 |
| 20260504182517 | 52 | 200 | 13.9 | 18.2 | 0.00 | 0.00 | 0.00 | 84 | 1012.0 |
| 20260504182015 | 52 | 203 | 13.9 | 17.4 | 0.00 | 0.00 | 0.00 | 84 | 1011.8 |
| 20260504181547 | 52 | 190 | 13.0 | 16.5 | 0.00 | 0.00 | 0.00 | 84 | 1012.2 |
| 20260504181021 | 52 | 222 | 11.3 | 16.5 | 0.00 | 0.00 | 0.00 | 85 | 1012.2 |
| 20260504180518 | 52 | 200 | 10.4 | 13.9 | 0.00 | 0.00 | 0.00 | 85 | 1012.4 |
| 20260504180110 | 52 | 209 | 11.3 | 14.8 | 0.00 | 0.00 | 0.00 | 85 | 1012.3 |
| 20260504175516 | 52 | 227 | 11.3 | 14.8 | 0.00 | 0.00 | 0.00 | 84 | 1012.3 |
| 20260504175017 | 53 | 225 | 11.3 | 15.6 | 0.00 | 0.00 | 0.00 | 84 | 1012.2 |
| 20260504174542 | 52 | 231 | 13.0 | 15.6 | 0.00 | 0.00 | 0.00 | 86 | 1012.4 |
| 20260504174017 | 52 | 230 | 10.4 | 14.8 | 0.00 | 0.00 | 0.00 | 86 | 1012.4 |
| 20260504173520 | 52 | 229 | 11.3 | 15.6 | 0.00 | 0.00 | 0.00 | 86 | 1012.5 |
| 20260504173058 | 52 | 224 | 12.2 | 14.8 | 0.00 | 0.00 | 0.00 | 87 | 1012.7 |
| 20260504172515 | 52 | 232 | 12.2 | 13.0 | 0.00 | 0.00 | 0.00 | 87 | 1012.6 |
| 20260504172016 | 52 | 227 | 10.4 | 13.0 | 0.00 | 0.00 | 0.00 | 88 | 1012.7 |
| 20260504171541 | 52 | 210 | 11.3 | 13.9 | 0.00 | 0.00 | 0.00 | 88 | 1012.7 |
| 20260504171020 | 52 | 217 | 11.3 | 14.8 | 0.00 | 0.00 | 0.00 | 88 | 1012.7 |
| 20260504170516 | 52 | 215 | 9.6 | 15.6 | 0.00 | 0.00 | 0.00 | 89 | 1012.9 |
| 20260504151016 | 51 | 226 | 11.3 | 13.0 | 0.00 | 0.00 | 0.00 | 86 | 1013.8 |
| 20260504150514 | 51 | 211 | 12.2 | 13.0 | 0.00 | 0.00 | 0.00 | 86 | 1013.8 |
| 20260504141020 | 51 | 225 | 9.6 | 13.9 | 0.00 | 0.00 | 0.00 | 85 | 1013.8 |
| 20260504140515 | 51 | 243 | 10.4 | 13.9 | 0.00 | 0.00 | 0.00 | 85 | 1013.9 |
| 20260504130516 | 50 | 225 | 12.2 | 15.6 | 0.00 | 0.00 | 0.00 | 86 | 1014.0 |
| 20260504110515 | 50 | 233 | 14.8 | 16.5 | 0.00 | 0.00 | 0.00 | 85 | 1013.7 |
| 20260504100517 | 49 | 235 | 13.9 | 16.5 | 0.00 | 0.00 | 0.00 | 86 | 1013.3 |
| 20260504081546 | 49 | 226 | 13.0 | 15.6 | 0.00 | 0.00 | 0.00 | 85 | 1012.8 |
| 20260504081014 | 49 | 244 | 13.0 | 15.6 | 0.00 | 0.00 | 0.00 | 85 | 1013.0 |
| 20260504080516 | 49 | 235 | 13.9 | 16.5 | 0.00 | 0.00 | 0.00 | 85 | 1012.7 |
| 20260504050519 | 48 | 246 | 9.6 | 10.4 | 0.00 | 0.00 | 0.00 | 89 | 1012.2 |
| 20260504050125 | 48 | 248 | 8.7 | 9.6 | 0.00 | 0.00 | 0.00 | 89 | 1012.3 |
| 20260504045515 | 48 | 233 | 8.7 | 10.4 | 0.00 | 0.00 | 0.00 | 88 | 1012.2 |
| 20260504045018 | 49 | 229 | 9.6 | 10.4 | 0.00 | 0.00 | 0.00 | 87 | 1012.2 |
| 20260504044551 | 49 | 232 | 9.6 | 12.2 | 0.00 | 0.00 | 0.00 | 87 | 1012.2 |
| 20260504044025 | 49 | 237 | 9.6 | 12.2 | 0.00 | 0.00 | 0.00 | 87 | 1012.2 |
| 20260504043517 | 49 | 245 | 7.8 | 10.4 | 0.00 | 0.00 | 0.00 | 87 | 1012.2 |
| 20260504043038 | 49 | 240 | 7.8 | 10.4 | 0.00 | 0.00 | 0.00 | 87 | 1012.2 |
| 20260504042511 | 49 | 219 | 7.8 | 11.3 | 0.00 | 0.00 | 0.00 | 88 | 1012.2 |
| 20260504042012 | 49 | 220 | 6.1 | 9.6 | 0.00 | 0.00 | 0.00 | 88 | 1012.2 |
| 20260504041538 | 49 | 219 | 7.0 | 9.6 | 0.00 | 0.00 | 0.00 | 87 | 1012.1 |
| 20260504041014 | 49 | 225 | 7.8 | 10.4 | 0.00 | 0.00 | 0.00 | 87 | 1012.0 |
| 20260504040513 | 49 | 223 | 9.6 | 10.4 | 0.00 | 0.00 | 0.00 | 86 | 1012.1 |
| 20260504040041 | 49 | 232 | 7.8 | 10.4 | 0.00 | 0.00 | 0.00 | 86 | 1012.0 |
| 20260504035514 | 49 | 242 | 7.0 | 9.6 | 0.00 | 0.00 | 0.00 | 84 | 1012.0 |
| 20260504035012 | 49 | 232 | 7.8 | 9.6 | 0.00 | 0.00 | 0.00 | 83 | 1011.9 |
| 20260504034547 | 49 | 236 | 8.7 | 10.4 | 0.00 | 0.00 | 0.00 | 83 | 1012.0 |
| 20260504034013 | 49 | 229 | 9.6 | 10.4 | 0.00 | 0.00 | 0.00 | 84 | 1011.9 |
| 20260504033521 | 49 | 229 | 8.7 | 9.6 | 0.00 | 0.00 | 0.00 | 85 | 1012.0 |
| 20260504033044 | 49 | 228 | 7.0 | 8.7 | 0.00 | 0.00 | 0.00 | 85 | 1012.0 |
| 20260504032516 | 49 | 209 | 6.1 | 8.7 | 0.00 | 0.00 | 0.00 | 83 | 1011.9 |
| 20260504032014 | 49 | 233 | 7.8 | 9.6 | 0.00 | 0.00 | 0.00 | 81 | 1011.9 |
| 20260504031558 | 49 | 229 | 8.7 | 8.7 | 0.00 | 0.00 | 0.00 | 80 | 1011.9 |
| 20260504031013 | 49 | 238 | 7.8 | 9.6 | 0.00 | 0.00 | 0.00 | 78 | 1012.0 |
| 20260504030510 | 49 | 252 | 7.8 | 8.7 | 0.00 | 0.00 | 0.00 | 76 | 1011.9 |
| 20260504030040 | 49 | 240 | 6.1 | 9.6 | 0.00 | 0.00 | 0.00 | 76 | 1011.9 |
| 20260504025512 | 49 | 235 | 6.1 | 9.6 | 0.00 | 0.00 | 0.00 | 76 | 1011.9 |
| 20260504025014 | 48 | 247 | 4.3 | 6.1 | 0.00 | 0.00 | 0.00 | 67 | 1012.0 |
| 20260504024542 | 49 | 253 | 4.3 | 6.1 | 0.00 | 0.00 | 0.00 | 74 | 1011.8 |
| 20260504024015 | 49 | 240 | 3.5 | 4.3 | 0.00 | 0.00 | 0.00 | 75 | 1011.9 |
| 20260504023514 | 49 | 248 | 3.5 | 5.2 | 0.00 | 0.00 | 0.00 | 77 | 1011.8 |
| 20260504023040 | 49 | 241 | 4.3 | 5.2 | 0.00 | 0.00 | 0.00 | 79 | 1011.8 |
| 20260504022516 | 49 | 232 | 4.3 | 5.2 | 0.00 | 0.00 | 0.00 | 83 | 1011.7 |
| 20260504022011 | 48 | 225 | 4.3 | 5.2 | 0.00 | 0.00 | 0.00 | 86 | 1011.8 |
| 20260504021538 | 48 | 211 | 3.5 | 5.2 | 0.00 | 0.00 | 0.00 | 86 | 1011.8 |
| 20260504021014 | 48 | 209 | 3.5 | 5.2 | 0.00 | 0.00 | 0.00 | 85 | 1011.8 |
| 20260504020512 | 49 | 200 | 3.5 | 5.2 | 0.00 | 0.00 | 0.00 | 83 | 1011.8 |
| 20260504020040 | 49 | 184 | 4.3 | 6.1 | 0.00 | 0.00 | 0.00 | 82 | 1011.8 |
| 20260504015514 | 49 | 184 | 4.3 | 7.0 | 0.00 | 0.00 | 0.00 | 80 | 1011.8 |
| 20260504015017 | 49 | 182 | 5.2 | 7.0 | 0.00 | 0.00 | 0.00 | 79 | 1011.7 |
| 20260504014537 | 49 | 171 | 7.0 | 7.8 | 0.00 | 0.00 | 0.00 | 77 | 1011.7 |
| 20260504014014 | 50 | 166 | 7.0 | 7.8 | 0.00 | 0.00 | 0.00 | 75 | 1011.6 |
| 20260504013513 | 50 | 168 | 6.1 | 7.8 | 0.00 | 0.00 | 0.00 | 73 | 1011.6 |
| 20260504013044 | 50 | 168 | 6.1 | 7.8 | 0.00 | 0.00 | 0.00 | 69 | 1011.5 |
| 20260504012515 | 50 | 156 | 6.1 | 7.8 | 0.00 | 0.00 | 0.00 | 69 | 1011.5 |